This is the latest recevied weather packets stored in our database for station/object KD0RII. If no packets are shown the sender has not sent any weather packets the latest 10 day(s).
| Time | Temp. | Humidity | Pressure | Rain* | Wind** | Luminosity | Snow |
|---|---|---|---|---|---|---|---|
| 1777424917 | 14.44° C | 72% | 1017 hPa | 0 mm | - | 3 W/m² | - |
| 1777424612 | 14.44° C | 71% | 1016.6 hPa | 0 mm | - | 4 W/m² | - |
| 1777424307 | 14.44° C | 73% | 1016.7 hPa | 0 mm | - | 6 W/m² | - |
| 1777424003 | 14.44° C | 73% | 1016.5 hPa | 0 mm | - | 8 W/m² | - |
| 1777423700 | 14.44° C | 73% | 1016.4 hPa | 0 mm | - | 9 W/m² | - |
| 1777423396 | 14.44° C | 73% | 1016.4 hPa | 0 mm | - | 11 W/m² | - |
| 1777423090 | 14.44° C | 72% | 1016.4 hPa | 0 mm | - | 12 W/m² | - |
| 1777422786 | 14.44° C | 72% | 1016.1 hPa | 0 mm | - | 19 W/m² | - |
| 1777422482 | 14.44° C | 73% | 1016 hPa | 0 mm | - | 22 W/m² | - |
| 1777422177 | 15° C | 72% | 1016.1 hPa | 0 mm | - | 20 W/m² | - |
| 1777421877 | 14.44° C | 71% | 1015.9 hPa | 0 mm | - | 35 W/m² | - |
| 1777421576 | 15° C | 71% | 1015.9 hPa | 0 mm | - | 47 W/m² | - |
| 1777421273 | 15° C | 72% | 1016 hPa | 0 mm | - | 46 W/m² | - |
| 1777420969 | 14.44° C | 72% | 1015.8 hPa | 0 mm | - | 40 W/m² | - |
| 1777420665 | 15° C | 71% | 1015.7 hPa | 0 mm | - | 37 W/m² | - |
| 1777420362 | 15° C | 69% | 1015.8 hPa | 0 mm | - | 32 W/m² | - |
| 1777420057 | 15° C | 70% | 1015.7 hPa | 0 mm | - | 41 W/m² | - |
| 1777419755 | 15.56° C | 69% | 1015.5 hPa | 0 mm | - | 57 W/m² | - |
| 1777419452 | 15.56° C | 68% | 1015.6 hPa | 0 mm | - | 85 W/m² | - |
| 1777419151 | 16.67° C | 66% | 1015.5 hPa | 0 mm | - | 93 W/m² | - |
| 1777418846 | 16.67° C | 64% | 1015.6 hPa | 0 mm | - | 157 W/m² | - |
| 1777418543 | 16.11° C | 65% | 1015.6 hPa | 0 mm | - | 170 W/m² | - |
| 1777418240 | 15.56° C | 67% | 1015.5 hPa | 0 mm | - | 268 W/m² | - |
| 1777417936 | 15° C | 69% | 1015.1 hPa | 0 mm | - | 191 W/m² | - |
| 1777417632 | 15.56° C | 67% | 1015.2 hPa | 0 mm | - | 174 W/m² | - |
* Rain latest hour (hover to see other rain measurements)
** Current wind speed in m/s (hover to see current wind gust speed)